Weather History for Carroll, IA

Change the Weather History Date:

Tuesday, October 1, 2013

  Actual Average Record
Temperature  
Mean Temperature 66 °F -  
Max Temperature 80 °F 73 °F 92 °F (1976)
Min Temperature 51 °F 46 °F 23 °F (1958)
Growing Degree Days 16 (Base 50)    
Moisture  
Dew Point 46 °F    
Average Humidity 53    
Maximum Humidity 88    
Minimum Humidity 21    
Precipitation  
Precipitation 0.00 in - - ()
Sea Level Pressure  
Sea Level Pressure 29.88 in    
Wind  
Wind Speed 13 mph (NW)    
Max Wind Speed 20 mph    
Max Gust Speed 28 mph    
Visibility 10 miles    
Events      
Averages and records for this station are not official NWS values.
T = Trace of Precipitation, MM = Missing Value Source: NWS Daily Summary

Daily Weather History Graph

Daily Weather History Graph

Search for Another Location

Airport:

Trip Planner

Search our weather history database for the weather conditions in past years. The results will help you decide how hot, cold, wet, or windy it might be!

Date:

Astronomy

Oct. 01, 2013 Rise Set
Actual Time 7:16 AM CDT 7:00 PM CDT
Civil Twilight 6:48 AM CDT 7:28 PM CDT
Nautical Twilight 6:16 AM CDT 8:00 PM CDT
Astronomical Twilight 5:43 AM CDT 8:33 PM CDT
Moon 3:48 AM CDT (10/1) 5:06 PM CDT (10/1)
Length of Visible Light 12h 39m
Length of Day
11h 43m
Waning Crescent, 12% of the Moon is Illuminated
Oct 1
Waning Crescent
Oct 4
New
Oct 11
First Quarter
Oct 18
Full
Oct 26
Last Quarter

Hourly Weather History & Observations

Time (CDT) Temp. Dew Point Humidity Pressure Visibility Wind Dir Wind Speed Gust Speed Precip Events Conditions
12:15 AM 66.2 °F 48.2 °F 52% 29.76 in 10.0 mi SSW 19.6 mph - N/A   Clear
12:35 AM 66.2 °F 48.2 °F 52% 29.76 in 10.0 mi SSW 17.3 mph - N/A   Clear
12:55 AM 64.4 °F 48.2 °F 56% 29.76 in 10.0 mi SSW 18.4 mph 25.3 mph N/A   Clear
1:15 AM 64.4 °F 48.2 °F 56% 29.76 in 10.0 mi SSW 18.4 mph 27.6 mph N/A   Clear
1:35 AM 64.4 °F 48.2 °F 56% 29.76 in 10.0 mi SSW 19.6 mph 25.3 mph N/A   Partly Cloudy
1:55 AM 64.4 °F 50.0 °F 59% 29.76 in 10.0 mi SW 18.4 mph - N/A   Clear
2:15 AM 64.4 °F 50.0 °F 59% 29.77 in 10.0 mi SW 18.4 mph - N/A   Clear
2:35 AM 64.4 °F 50.0 °F 59% 29.76 in 10.0 mi SW 18.4 mph 26.5 mph N/A   Clear
2:55 AM 64.4 °F 50.0 °F 59% 29.76 in 10.0 mi SW 17.3 mph 25.3 mph N/A   Partly Cloudy
3:15 AM 62.6 °F 50.0 °F 63% 29.76 in 10.0 mi SW 17.3 mph 24.2 mph N/A   Clear
3:35 AM 62.6 °F 50.0 °F 63% 29.76 in 10.0 mi SW 17.3 mph 25.3 mph N/A   Clear
3:55 AM 62.6 °F 50.0 °F 63% 29.76 in 10.0 mi SW 15.0 mph - N/A   Clear
4:15 AM 60.8 °F 50.0 °F 68% 29.79 in 10.0 mi SW 17.3 mph - N/A   Clear
4:35 AM 60.8 °F 50.0 °F 68% 29.79 in 10.0 mi SW 16.1 mph 23.0 mph N/A   Clear
4:55 AM 60.8 °F 50.0 °F 68% 29.79 in 10.0 mi SW 16.1 mph 21.9 mph N/A   Clear
5:15 AM 60.8 °F 50.0 °F 68% 29.80 in 10.0 mi SW 15.0 mph 21.9 mph N/A   Clear
5:35 AM 60.8 °F 51.8 °F 72% 29.79 in 10.0 mi SW 18.4 mph - N/A   Clear
5:55 AM 60.8 °F 51.8 °F 72% 29.79 in 10.0 mi SW 16.1 mph - N/A   Clear
6:15 AM 60.8 °F 51.8 °F 72% 29.80 in 10.0 mi SW 17.3 mph - N/A   Clear
6:35 AM 60.8 °F 51.8 °F 72% 29.81 in 10.0 mi SW 11.5 mph 19.6 mph N/A   Clear
6:55 AM 60.8 °F 51.8 °F 72% 29.82 in 10.0 mi SW 8.1 mph - N/A   Clear
7:15 AM 59.0 °F 51.8 °F 77% 29.84 in 10.0 mi West 9.2 mph - N/A   Clear
7:35 AM 59.0 °F 51.8 °F 77% 29.84 in 10.0 mi West 9.2 mph - N/A   Clear
7:55 AM 59.0 °F 51.8 °F 77% 29.85 in 10.0 mi West 9.2 mph 17.3 mph N/A   Clear
8:15 AM 59.0 °F 51.8 °F 77% 29.86 in 10.0 mi West 10.4 mph - N/A   Clear
8:35 AM 60.8 °F 51.8 °F 72% 29.86 in 10.0 mi West 11.5 mph - N/A   Clear
8:55 AM 62.6 °F 51.8 °F 68% 29.88 in 10.0 mi WNW 11.5 mph - N/A   Clear
9:15 AM 64.4 °F 51.8 °F 64% 29.88 in 10.0 mi NW 9.2 mph - N/A   Clear
9:35 AM 68.0 °F 51.8 °F 56% 29.89 in 10.0 mi NNW 11.5 mph - N/A   Light Drizzle
9:55 AM 68.0 °F 50.0 °F 52% 29.90 in 10.0 mi North 12.7 mph 18.4 mph N/A   Light Drizzle
10:15 AM 69.8 °F 48.2 °F 46% 29.91 in 10.0 mi North 15.0 mph - N/A   Light Drizzle
10:35 AM 71.6 °F 50.0 °F 46% 29.91 in 10.0 mi North 12.7 mph 18.4 mph N/A   Light Drizzle
10:55 AM 71.6 °F 50.0 °F 46% 29.92 in 10.0 mi North 12.7 mph 18.4 mph N/A   Light Drizzle
11:15 AM 73.4 °F 50.0 °F 44% 29.92 in 10.0 mi North 13.8 mph - N/A   Clear
11:35 AM 73.4 °F 48.2 °F 41% 29.92 in 10.0 mi North 8.1 mph 13.8 mph N/A   Clear
11:55 AM 75.2 °F 48.2 °F 38% 29.93 in 10.0 mi Variable 5.8 mph 11.5 mph N/A   Clear
12:15 PM 75.2 °F 46.4 °F 36% 29.93 in 10.0 mi Variable 3.5 mph 12.7 mph N/A   Clear
12:35 PM 77.0 °F 44.6 °F 32% 29.93 in 10.0 mi North 4.6 mph 11.5 mph N/A   Clear
12:55 PM 77.0 °F 44.6 °F 32% 29.94 in 10.0 mi North 6.9 mph 12.7 mph N/A   Clear
1:15 PM 77.0 °F 42.8 °F 29% 29.94 in 10.0 mi NE 5.8 mph 11.5 mph N/A   Clear
1:35 PM 78.8 °F 42.8 °F 28% 29.93 in 10.0 mi NNW 8.1 mph 15.0 mph N/A   Clear
1:55 PM 78.8 °F 42.8 °F 28% 29.92 in 10.0 mi NNE 8.1 mph - N/A   Clear
2:15 PM 78.8 °F 41.0 °F 26% 29.92 in 10.0 mi NNE 5.8 mph - N/A   Clear
2:35 PM 78.8 °F 39.2 °F 24% 29.92 in 10.0 mi North 9.2 mph - N/A   Clear
2:55 PM 80.6 °F 39.2 °F 23% 29.93 in 10.0 mi North 9.2 mph - N/A   Clear
3:15 PM 80.6 °F 37.4 °F 21% 29.93 in 10.0 mi Variable 8.1 mph - N/A   Clear
3:35 PM 80.6 °F 37.4 °F 21% 29.92 in 10.0 mi North 10.4 mph 16.1 mph N/A   Clear
3:55 PM 80.6 °F 37.4 °F 21% 29.93 in 10.0 mi NNE 10.4 mph 17.3 mph N/A   Clear
4:15 PM 80.6 °F 37.4 °F 21% 29.92 in 10.0 mi NNE 9.2 mph 15.0 mph N/A   Clear
4:35 PM 80.6 °F 37.4 °F 21% 29.93 in 10.0 mi North 8.1 mph 16.1 mph N/A   Clear
4:55 PM 80.6 °F 37.4 °F 21% 29.93 in 10.0 mi North 6.9 mph 13.8 mph N/A   Clear
5:15 PM 80.6 °F 37.4 °F 21% 29.93 in 10.0 mi NNE 5.8 mph - N/A   Clear
5:35 PM 78.8 °F 37.4 °F 23% 29.93 in 10.0 mi North 8.1 mph - N/A   Clear
5:55 PM 78.8 °F 39.2 °F 24% 29.94 in 10.0 mi NNE 8.1 mph - N/A   Clear
6:15 PM 77.0 °F 39.2 °F 26% 29.94 in 9.0 mi North 6.9 mph - N/A   Clear
6:35 PM 73.4 °F 41.0 °F 31% 29.94 in 10.0 mi North 5.8 mph - N/A   Clear
6:55 PM 71.6 °F 41.0 °F 33% 29.94 in 10.0 mi North 6.9 mph - N/A   Clear
7:15 PM 68.0 °F 41.0 °F 37% 29.94 in 10.0 mi North 5.8 mph - N/A   Clear
7:35 PM 64.4 °F 41.0 °F 42% 29.95 in 10.0 mi North 3.5 mph - N/A   Clear
7:55 PM 62.6 °F 44.6 °F 52% 29.96 in 10.0 mi Calm Calm - N/A   Clear
8:15 PM 60.8 °F 44.6 °F 55% 29.96 in 10.0 mi Calm Calm - N/A   Clear
8:35 PM 57.2 °F 46.4 °F 67% 29.96 in 10.0 mi Calm Calm - N/A   Clear
8:55 PM 57.2 °F 46.4 °F 67% 29.97 in 10.0 mi Calm Calm - N/A   Clear
9:15 PM 55.4 °F 46.4 °F 72% 29.97 in 10.0 mi Calm Calm - N/A   Clear
9:35 PM 55.4 °F 48.2 °F 77% 29.97 in 6.0 mi Calm Calm - N/A   Haze
9:55 PM 53.6 °F 48.2 °F 82% 29.97 in 2.5 mi Calm Calm - N/A   Haze
10:15 PM 53.6 °F 48.2 °F 82% 29.98 in 6.0 mi Calm Calm - N/A   Haze
10:35 PM 53.6 °F 48.2 °F 82% 29.98 in 6.0 mi WNW 4.6 mph - N/A   Haze
10:55 PM 51.8 °F 48.2 °F 88% 29.98 in 3.0 mi NNW 4.6 mph - N/A   Haze
11:15 PM 51.8 °F 46.4 °F 82% 29.98 in 5.0 mi Calm Calm - N/A   Haze
11:35 PM 53.6 °F 46.4 °F 77% 29.98 in 8.0 mi Calm Calm - N/A   Clear
11:55 PM 53.6 °F 46.4 °F 77% 29.99 in 5.0 mi Calm Calm - N/A   Haze